| time (UTC) | temp F | wind direction | speed MPH | gust MPH | rain 1hr in | rain 24hr in | rain mn in | humidity % | barometer mb |
| 20260508131530 | 47 | 304 | 6.0 | 13.0 | 0.00 | 0.20 | 0.00 | 82 | 1006.4 |
| 20260508130019 | 47 | 329 | 5.0 | 12.0 | 0.00 | 0.23 | 0.00 | 83 | 1006.3 |
| 20260508124524 | 47 | 265 | 6.0 | 12.0 | 0.00 | 0.29 | 0.00 | 82 | 1006.2 |
| 20260508123030 | 47 | 243 | 6.0 | 11.0 | 0.00 | 0.35 | 0.00 | 82 | 1006.2 |
| 20260508121512 | 47 | 317 | 4.0 | 16.0 | 0.00 | 0.42 | 0.00 | 81 | 1006.1 |
| 20260508120016 | 47 | 263 | 5.0 | 10.0 | 0.00 | 0.50 | 0.00 | 82 | 1005.9 |
| 20260508114521 | 46 | 252 | 4.0 | 10.0 | 0.00 | 0.56 | 0.00 | 83 | 1005.8 |
| 20260508113029 | 46 | 293 | 2.0 | 8.0 | 0.00 | 0.56 | 0.00 | 84 | 1005.8 |
| 20260508111539 | 45 | 319 | 3.0 | 9.0 | 0.00 | 0.56 | 0.00 | 84 | 1005.8 |
| 20260508110012 | 45 | 299 | 5.0 | 11.0 | 0.00 | 0.56 | 0.00 | 85 | 1005.7 |
| 20260508104517 | 45 | 294 | 4.0 | 7.0 | 0.00 | 0.56 | 0.00 | 86 | 1005.5 |
| 20260508103029 | 44 | 333 | 3.0 | 10.0 | 0.00 | 0.56 | 0.00 | 87 | 1005.4 |
| 20260508101534 | 43 | 302 | 4.0 | 11.0 | 0.00 | 0.56 | 0.00 | 87 | 1005.2 |
| 20260508100029 | 43 | 317 | 6.0 | 11.0 | 0.00 | 0.56 | 0.00 | 88 | 1005.2 |
| 20260508094526 | 42 | 275 | 6.0 | 11.0 | 0.00 | 0.56 | 0.00 | 90 | 1004.9 |
| 20260508093020 | 41 | 302 | 8.0 | 11.0 | 0.00 | 0.56 | 0.00 | 92 | 1004.9 |
| 20260508091524 | 41 | 315 | 3.0 | 8.0 | 0.00 | 0.56 | 0.00 | 92 | 1004.7 |
| 20260508090008 | 41 | 325 | 3.0 | 6.0 | 0.00 | 0.56 | 0.00 | 93 | 1004.5 |
| 20260508084510 | 42 | 331 | 2.0 | 5.0 | 0.00 | 0.56 | 0.00 | 93 | 1004.2 |
| 20260508083016 | 42 | 277 | 6.0 | 12.0 | 0.00 | 0.56 | 0.00 | 93 | 1004.3 |
| 20260508081518 | 43 | 298 | 8.0 | 10.0 | 0.00 | 0.56 | 0.00 | 94 | 1004.3 |
| 20260508080004 | 43 | 319 | 7.0 | 11.0 | 0.00 | 0.56 | 0.00 | 95 | 1004.4 |
| 20260508074505 | 43 | 290 | 4.0 | 7.0 | 0.00 | 0.56 | 0.00 | 95 | 1004.5 |
| 20260508073016 | 43 | 338 | 2.0 | 5.0 | 0.00 | 0.56 | 0.00 | 95 | 1004.4 |
| 20260508071522 | 43 | 338 | 2.0 | 5.0 | 0.00 | 0.56 | 0.00 | 95 | 1004.4 |
| 20260508070022 | 43 | 338 | 2.0 | 5.0 | 0.00 | 0.57 | 0.00 | 95 | 1004.4 |
| 20260508064535 | 43 | 360 | 2.0 | 4.0 | 0.00 | 0.58 | 0.00 | 95 | 1004.4 |
| 20260508063010 | 43 | 360 | 3.0 | 5.0 | 0.00 | 0.59 | 0.00 | 96 | 1004.5 |
| 20260508061517 | 43 | 333 | 3.0 | 5.0 | 0.00 | 0.61 | 0.00 | 96 | 1004.4 |
| 20260508060021 | 43 | 333 | 2.0 | 4.0 | 0.00 | 0.64 | 0.00 | 96 | 1004.6 |
| 20260508054522 | 43 | 333 | 2.0 | 5.0 | 0.00 | 0.66 | 0.00 | 96 | 1004.6 |
| 20260508053028 | 43 | 355 | 3.0 | 8.0 | 0.00 | 0.67 | 0.00 | 96 | 1004.4 |
| 20260508051508 | 43 | 333 | 5.0 | 9.0 | 0.00 | 0.70 | 0.00 | 96 | 1004.2 |
| 20260508050020 | 44 | 306 | 4.0 | 8.0 | 0.00 | 0.74 | 0.00 | 96 | 1004.3 |
| 20260508044520 | 43 | 316 | 4.0 | 9.0 | 0.00 | 0.79 | 0.00 | 96 | 1004.5 |
| 20260508043023 | 43 | 310 | 4.0 | 9.0 | 0.00 | 0.81 | 0.00 | 96 | 1004.7 |
| 20260508041527 | 42 | 271 | 2.0 | 9.0 | 0.00 | 0.81 | 0.00 | 95 | 1004.8 |
| 20260508040017 | 42 | 232 | 1.0 | 3.0 | 0.00 | 0.81 | 0.00 | 95 | 1005.2 |
| 20260508034515 | 42 | 232 | 3.0 | 5.0 | 0.00 | 0.81 | 0.00 | 95 | 1005.2 |
| 20260508033024 | 42 | 234 | 5.0 | 7.0 | 0.00 | 0.81 | 0.00 | 95 | 1005.1 |
| 20260508031529 | 41 | 202 | 3.0 | 6.0 | 0.00 | 0.81 | 0.00 | 94 | 1005.0 |
| 20260508030026 | 42 | 201 | 3.0 | 6.0 | 0.00 | 0.81 | 0.00 | 95 | 1004.8 |
| 20260508024540 | 42 | 201 | 3.0 | 4.0 | 0.00 | 0.81 | 0.81 | 94 | 1004.5 |
| 20260508023026 | 42 | 201 | 1.0 | 4.0 | 0.00 | 0.81 | 0.81 | 93 | 1004.4 |
| 20260508021522 | 42 | 201 | 2.0 | 4.0 | 0.00 | 0.81 | 0.81 | 93 | 1004.7 |
| 20260508020024 | 43 | 203 | 2.0 | 4.0 | 0.00 | 0.81 | 0.81 | 93 | 1005.0 |
| 20260508014543 | 43 | 203 | 1.0 | 5.0 | 0.00 | 0.81 | 0.81 | 93 | 1005.2 |
| 20260508013028 | 44 | 196 | 2.0 | 4.0 | 0.00 | 0.81 | 0.81 | 93 | 1005.2 |
| 20260508011519 | 44 | 196 | 2.0 | 4.0 | 0.00 | 0.81 | 0.81 | 93 | 1005.2 |
| 20260508010028 | 44 | 196 | 1.0 | 4.0 | 0.00 | 0.81 | 0.81 | 92 | 1005.1 |
| 20260508004528 | 44 | 196 | 3.0 | 5.0 | 0.00 | 0.81 | 0.81 | 92 | 1004.8 |
| 20260508003050 | 44 | 219 | 2.0 | 4.0 | 0.00 | 0.81 | 0.81 | 91 | 1004.8 |
| 20260508001528 | 45 | 219 | 3.0 | 4.0 | 0.00 | 0.81 | 0.81 | 90 | 1004.9 |
| 20260508000003 | 45 | 219 | 2.0 | 4.0 | 0.00 | 0.81 | 0.81 | 89 | 1004.4 |
| 20260507234504 | 46 | 219 | 1.0 | 4.0 | 0.00 | 0.81 | 0.81 | 88 | 1004.5 |
| 20260507233006 | 46 | 207 | 2.0 | 4.0 | 0.00 | 0.81 | 0.81 | 87 | 1004.3 |
| 20260507231507 | 47 | 207 | 3.0 | 4.0 | 0.00 | 0.81 | 0.81 | 86 | 1004.2 |
| 20260507230016 | 48 | 207 | 3.0 | 6.0 | 0.00 | 0.81 | 0.81 | 86 | 1004.3 |
| 20260507224506 | 49 | 240 | 4.0 | 11.0 | 0.00 | 0.81 | 0.81 | 86 | 1004.5 |
| 20260507223004 | 49 | 198 | 3.0 | 6.0 | 0.00 | 0.81 | 0.81 | 87 | 1004.6 |
| 20260507221507 | 49 | 244 | 3.0 | 5.0 | 0.00 | 0.81 | 0.81 | 87 | 1004.3 |
| 20260507220012 | 49 | 238 | 3.0 | 5.0 | 0.00 | 0.81 | 0.81 | 88 | 1004.2 |
| 20260507214517 | 49 | 226 | 4.0 | 9.0 | 0.00 | 0.81 | 0.81 | 90 | 1004.3 |
| 20260507213003 | 48 | 218 | 6.0 | 10.0 | 0.00 | 0.81 | 0.81 | 91 | 1004.5 |
| 20260507211504 | 48 | 211 | 6.0 | 10.0 | 0.00 | 0.81 | 0.81 | 93 | 1004.6 |
| 20260507210031 | 48 | 218 | 6.0 | 9.0 | 0.00 | 0.81 | 0.81 | 93 | 1004.4 |
| 20260507204514 | 47 | 225 | 7.0 | 10.0 | 0.00 | 0.81 | 0.81 | 94 | 1004.4 |
| 20260507203030 | 47 | 226 | 8.0 | 12.0 | 0.00 | 0.81 | 0.81 | 95 | 1004.3 |
| 20260507201503 | 48 | 229 | 6.0 | 10.0 | 0.00 | 0.81 | 0.81 | 97 | 1004.0 |
| 20260507200004 | 47 | 225 | 7.0 | 10.0 | 0.00 | 0.81 | 0.81 | 97 | 1004.0 |
| 20260507194510 | 48 | 225 | 7.0 | 11.0 | 0.00 | 0.81 | 0.81 | 97 | 1004.1 |
| 20260507193012 | 47 | 234 | 6.0 | 10.0 | 0.00 | 0.81 | 0.81 | 98 | 1004.3 |
| 20260507191528 | 47 | 231 | 7.0 | 9.0 | 0.00 | 0.81 | 0.81 | 99 | 1004.5 |
| 20260507190023 | 46 | 241 | 7.0 | 10.0 | 0.00 | 0.81 | 0.81 | 98 | 1004.4 |
| 20260507184512 | 47 | 236 | 5.0 | 9.0 | 0.00 | 0.81 | 0.81 | 99 | 1004.2 |
| 20260507183011 | 47 | 244 | 4.0 | 8.0 | 0.00 | 0.81 | 0.81 | 100 | 1004.1 |
| 20260507181516 | 46 | 237 | 5.0 | 8.0 | 0.00 | 0.81 | 0.81 | 100 | 1004.3 |
| 20260507180019 | 47 | 242 | 4.0 | 8.0 | 0.00 | 0.81 | 0.81 | 100 | 1004.2 |
| 20260507174523 | 47 | 288 | 3.0 | 8.0 | 0.00 | 0.81 | 0.81 | 100 | 1004.0 |
| 20260507173006 | 46 | 277 | 2.0 | 9.0 | 0.00 | 0.81 | 0.81 | 100 | 1004.0 |
| 20260507171513 | 48 | 275 | 4.0 | 9.0 | 0.00 | 0.81 | 0.81 | 100 | 1004.3 |
| 20260507170017 | 48 | 293 | 4.0 | 10.0 | 0.00 | 0.81 | 0.81 | 100 | 1004.2 |
| 20260507164522 | 46 | 303 | 3.0 | 8.0 | 0.00 | 0.81 | 0.81 | 100 | 1004.3 |
| 20260507163025 | 46 | 317 | 6.0 | 10.0 | 0.01 | 0.81 | 0.81 | 100 | 1004.6 |
| 20260507161509 | 46 | 309 | 7.0 | 10.0 | 0.02 | 0.81 | 0.81 | 100 | 1004.6 |
| 20260507160012 | 45 | 291 | 4.0 | 8.0 | 0.03 | 0.81 | 0.81 | 100 | 1005.0 |
| 20260507154519 | 44 | 263 | 2.0 | 10.0 | 0.08 | 0.81 | 0.81 | 100 | 1005.3 |
| 20260507153028 | 45 | 220 | 4.0 | 8.0 | 0.10 | 0.80 | 0.80 | 100 | 1005.1 |
| 20260507151526 | 45 | 240 | 3.0 | 5.0 | 0.10 | 0.79 | 0.79 | 100 | 1004.4 |
| 20260507150010 | 45 | 221 | 1.0 | 5.0 | 0.08 | 0.77 | 0.77 | 100 | 1004.4 |
| 20260507144507 | 45 | 203 | 3.0 | 6.0 | 0.03 | 0.72 | 0.72 | 100 | 1005.0 |
| 20260507143005 | 46 | 236 | 4.0 | 8.0 | 0.04 | 0.70 | 0.70 | 100 | 1004.8 |
| 20260507141504 | 46 | 148 | 2.0 | 3.0 | 0.07 | 0.69 | 0.69 | 100 | 1004.5 |
| 20260507140011 | 46 | 148 | 1.0 | 5.0 | 0.10 | 0.68 | 0.68 | 100 | 1004.3 |
| 20260507134510 | 46 | 148 | 1.0 | 3.0 | 0.15 | 0.68 | 0.68 | 100 | 1004.4 |
| 20260507133010 | 45 | 124 | 4.0 | 8.0 | 0.18 | 0.65 | 0.65 | 100 | 1004.6 |